Regional Weather Roundup
Issued by NWS Newport/Morehead, NC

Home | Current Version | Previous Version | Text Only | Print | Product List | Glossary On
Versions: 1 2 3 4 5 6 7 8 9 10 11 12 13 14 15 16 17 18 19 20 21 22 23 24 25 26 27 28 29 30 31 32 33 34 35 36 37 38 39 40 41 42 43 44 45 46 47 48 49 50
000
ASUS42 KMHX 201125
RWRMHX
WEATHER ROUNDUP FOR EASTERN NORTH CAROLINA
NATIONAL WEATHER SERVICE NEWPORT/MOREHEAD CITY NC
700 AM EDT FRI OCT 20 2017

NOTE: "FAIR" INDICATES FEW OR NO CLOUDS BELOW 12,000 FEET
WITH NO SIGNIFICANT WEATHER AND/OR OBSTRUCTIONS TO VISIBILITY

NCZ015>017-031-032-045>047-102-103-201200-
NORTH COAST

CITY           SKY/WX    TMP DP  RH WIND       PRES   REMARKS
EDENTON        FAIR      51  50  95 CALM      30.22S FOG
ELIZABETH CITY FAIR      53  53 100 CALM      30.21R FOG
KITTY HAWK     FAIR     N/A N/A N/A CALM      30.20R
MANTEO         FAIR     N/A N/A N/A NW5       30.21R

$$

NCZ045>047-081-094-103-104-201200-
CENTRAL COAST

CITY           SKY/WX    TMP DP  RH WIND       PRES   REMARKS
FRISCO         FAIR      58  57  97 CALM      30.20R

$$

NCZ095-097-098-100-101-201200-
SOUTHERN COAST

CITY           SKY/WX    TMP DP  RH WIND       PRES   REMARKS
BEAUFORT       FAIR      54  53  97 CALM      30.21S
CEDAR ISLAND   NOT AVBL
JACKSONVILLE   FAIR      53  53 100 W3        30.22R
PINEY ISLAND     N/A    N/A N/A N/A W5        30.21R
WILMINGTON     FAIR      53  52  96 CALM      30.23R


$$

NCZ011>013-027>030-043-044-078>080-089-090>093-098-201200-
COASTAL PLAIN

CITY           SKY/WX    TMP DP  RH WIND       PRES   REMARKS
AHOSKIE        FAIR      43  43 100 CALM      30.22R
CLINTON        FAIR      47  47 100 CALM      30.25R
ELIZABETHTOWN  NOT AVBL
GOLDSBORO      FAIR      48  47  94 CALM      30.21R FOG
GREENVILLE     FOG       48  46  93 CALM      30.23R VSB 1/2
HAVELOCK       FAIR      50  32  50 SW3       30.23R
KENANSVILLE    FAIR      45  43  93 CALM      30.24R FOG
KINSTON        FAIR      45  45 100 CALM      30.23S
NEW BERN       FAIR      51  51 100 CALM      30.23R
RICHLANDS      FAIR      46  46 100 CALM      30.23S FOG
ROCKY MOUNT    FAIR      46  46 100 CALM      30.23R FOG
WASHINGTON     FOG       50  49  97 CALM      30.22S VSB 1
WHITEVILLE     FAIR      51  51  97 CALM      30.23S

$$

AMZ130-135-150-152-154-156-158-170-250-252-270-ANZ085-086-088-633-658-670-201200-
MARINE OBSERVATIONS

STATION/POSITION TIME  TEMP    WIND        PRES    WAVE   SWELL
                       AIR SEA DIR/SP/G            HT/PER HT/PER
                 (UTC) (F)     (DEG/KT/KT) (MB)    (FT/S) (FT/S)
CHESAPEAKE LIGHT NOT AVBL
64 E VA BEACH    1050   68 67  270/ 10/ 10 1022.5    3/ 9   3/ 9
DUCK             1100   64 69  280/  6/  7 1022.5
2 E DUCK         1100      69                N/A     3/ 8
OREGON INLET     1100   63 68  270/  3/  4 1022.6
13E OREGON INLT  1048      71                N/A     3/ 8   3/ 8
HATTERAS CG      1100   67 70  320/  3/  4 1022.6
DIAMOND BUOY     1050   72 81  330/  8/ 12 1022.2    4/ 9   3/ 9
CAPE LOOKOUT     1100   66     350/  4/  4 1022.7
BEAUFORT LAB     1100   62 70   CALM  /  1 1023.2
30 SE NEW RVR IN 1108   72     360/  4/  8 1022.8
30 SE NEW RVR IN NOT AVBL
27 SE WRIGHTSVLE 1108   72 75  360/  6/ 10 1023.0
5 SE WRIGHTSVLE  1108   65 74  340/  6/ 10 1023.1
225 S CAPE HAT   1050   77 80   40/ 14/ 17 1020.2    6/ 9   3/ 9
41 SE CHARLESTON 1110   75 79   40/ 10/ 16 1022.2

$$




USA.gov is the U.S. government's official web portal to all federal, state and local government web resources and services.